User: anonymous   Login
Location: Gajan
(43.0218°N, 1.1244°E)
Time: 04:17:09
(UTC+00:00)
Language:

Cosmos 1634 Rocket - Orbit

View from above orbital plane
View from above orbital plane
View from above satellite
View from above satellite

Ground track
Ground track

The orbit data is extracted from the following two-line orbital elements,

1 15598U 85022B   21169.32476795  .00000056  00000-0  41216-4 0  9996
2 15598  82.9377 100.2894 0021831 343.7819 131.9546 13.76593437821389
Epoch (UTC): 18 June 2021 07:47:39
Eccentricity: 0.0021831
inclination: 82.9377°
perigee height: 960 km
apogee height: 992 km
right ascension of ascending node: 100.2894°
argument of perigee: 343.7819°
revolutions per day: 13.76593437
mean anomaly at epoch: 131.9546°
orbit number at epoch: 82138

The dashed part of the orbit path shows where the satellite is in the earth's shadow,  

DLR